www.pogodaiklimat.ru

Погода и климат >> Архив погоды >> Швеция >> Оландс Содра Удде


ПОГОДА в Оландс Содра Удде

  • Прогноз погоды в Оландс Содра Удде
  • Монитор погоды в Оландс Содра Удде

АРХИВ ПОГОДЫ в Оландс Содра Удде

Время (UTC), дата Ветер
(напр.,м/с)
 
Видим.   Явления Облачность Т
(С)
Тd
(С)
f
(%)
Тe
(С)
Тes
(С)
Комфортность P
(гПа)
Po
(гПа)
Тmin
(С)
Tmax
(С)
R
(мм)
R24
(мм)
S
(см)
13 15.09 З 10
{12}
23 км 4/3 1500 м
[]
+14.3 +10.2 76 +12 +12 1006.5 1006.2
14 15.09 З 9
{13}
23 км 6/5 1500 м
[]
+14.7 +8.7 67 +12 +13 1006.7 1006.3
15 15.09 З 10
{14}
21 км 10/10 1500 м
[]
+14.9 +7.1 60 +13 +13 1006.5 1006.2
16 15.09 З 9
{17}
18 км 10/9 1500 м
[]
+14.4 +7.3 62 +12 +12 1006.9 1006.5
17 15.09 З 10
{18}
14 км 10/3
[]
+14.0 +7.0 63 +11 +11 1006.8 1006.4
18 15.09 З 10
{15}
15 км 3/0
[]
+13.5 +7.2 66 +11 +11 1006.7 1006.4 +13.3 +15.8
19 15.09 З 12
{17}
14 км 1/0
[]
+13.0 +7.7 70 +10 +10 1006.6 1006.2
20 15.09 З 11
{15}
14 км 1/0
[]
+12.7 +8.1 74 +9 +9 1006.3 1005.9
21 15.09 З 11
{16}
15 км 1/0
[]
+12.5 +8.3 76 +9 +9 1006.1 1005.7
22 15.09 З 14
{18}
н/о 3/0
[]
+12.6 +8.2 75 +9 +9 1005.8 1005.4
23 15.09 З 14
{18}
н/о н/о +12.6 +8.3 75 +9 +9 1005.2 1004.9
00 16.09 З 10
{18}
н/о н/о +12.5 +8.3 76 +9 +9 1005.2 1004.9
01 16.09 З 10
{17}
н/о н/о +12.4 +8.4 77 +9 +9 1005.4 1005.0
02 16.09 З 11
{15}
17 км н/о +12.5 +8.3 76 +9 +9 1005.3 1005.0
03 16.09 З 14
{18}
18 км ясно +12.7 +8.2 74 +9 +9 1006.0 1005.7
04 16.09 З 13
{18}
16 км ясно +12.5 +7.9 74 +9 +9 1006.3 1006.0
05 16.09 З 10
{16}
17 км ясно +12.3 +7.5 72 +9 +9 1006.8 1006.4
06 16.09 З 8
{13}
20 км 8/8 1000 м
[]
+12.4 +7.7 73 +9 +9 1007.3 1006.9 +12.3 +13.6
07 16.09 З 9
{13}
23 км 10/1 1020 м
[]
+12.8 +7.3 69 +10 +10 1007.5 1007.2
08 16.09 З 10
{13}
23 км ясно +13.4 +7.3 67 +10 +11 1007.5 1007.1
09 16.09 З 11
{13}
22 км ясно +14.1 +7.0 62 +11 +11 1007.4 1007.0
10 16.09 З 10
{12}
20 км ясно +14.6 +6.8 59 +12 +12 1007.4 1007.0
11 16.09 З 7
{12}
29 км 3/3 1500 м
[]
+15.1 +6.7 57 +13 +15 1007.5 1007.2
12 16.09 З 11
{14}
30 км ясно +15.7 +5.0 49 +14 +14 1007.2 1006.9
13 16.09 З 7
{14}
35 км 4/3 2000 м
[]
+15.4 +6.2 54 +14 +15 1007.4 1007.1
14 16.09 З 8
{14}
30 км 1/0
[]
+15.0 +6.1 55 +13 +14 1007.6 1007.2
15 16.09 З 11
{16}
35 км 10/0
[]
+14.6 +6.1 57 +12 +12 1007.6 1007.2
16 16.09 З 9
{14}
40 км ясно +13.8 +7.3 65 +11 +11 1007.6 1007.2
17 16.09 З 8
{13}
40 км ясно +13.3 +6.9 65 +11 +11 1007.9 1007.5
18 16.09 З 8
{12}
35 км ясно +12.7 +7.2 69 +10 +10 1008.5 1008.1 +12.3 +15.9
19 16.09 З 9
{11}
26 км ясно +12.2 +6.9 70 +9 +9 1008.7 1008.3
20 16.09 З 9
{12}
26 км ясно +11.7 +6.9 72 +8 +8 1008.9 1008.5
21 16.09 З 8
{11}
23 км ясно +11.1 +7.1 76 +8 +8 1008.5 1008.2
22 16.09 З 8
{13}
25 км ясно +11.0 +7.6 80 +7 +7 1008.2 1007.8
23 16.09 З 8
{13}
30 км ясно +11.1 +8.1 82 +7 +7 1007.8 1007.5
00 17.09 З 7
{13}
35 км ясно +11.0 +8.4 84 +8 +8 1007.6 1007.3
01 17.09 З 8
{11}
30 км ясно +10.9 +8.8 87 +7 +7 1007.3 1006.9
02 17.09 З 8
{13}
35 км 10/8 1380 м
[]
+11.0 +9.1 88 +7 +7 1006.8 1006.4
03 17.09 З 10
{12}
40 км 10/0
[]
+10.9 +8.9 87 +7 +7 1005.8 1005.4
04 17.09 З 8
{13}
7000 м дождь 10/10 1500 м
[]
+10.2 +8.6 90 +6 +6 1005.1 1004.7 1
05 17.09 З 11
{14}
17 км слаб. ливневой дождь 10/8 1200 м
[]
+10.2 +8.8 91 +5 +5 1004.4 1004.0 0.4
06 17.09 З 9
{14}
50 км слаб. ливневой дождь 10/10 1260 м
[]
+10.3 +7.6 83 +6 +6 1003.8 1003.4 +9.8 +12.7 0.6
07 17.09 З 10
{13}
29 км в посл. час дождь {ливн. осадки, метель} 10/8
[]
+10.7 +7.8 82 +7 +7 1003.3 1002.9 0.0
08 17.09 З 10
{13}
29 км {ливн. осадки, метель} 10/3 750 м
[]
+11.1 +7.5 78 +7 +7 1002.6 1002.2
09 17.09 З 10
{14}
30 км {ливн. осадки, метель} 10/10 930 м
[]
+11.6 +7.0 73 +8 +8 1001.9 1001.6
10 17.09 СЗ 10
{15}
5000 м ливневой дождь {метель} 8/3 180 м
[]
+8.7 +6.1 84 +4 +4 1001.7 1001.3 1
11 17.09 З 6
{18}
35 км в посл. час дождь {ливн. осадки, метель} 10/1 1000 м
[]
+10.2 +6.4 77 +7 +8 1001.1 1000.7 1
12 17.09 З 11
{17}
35 км в посл. час дождь {ливн. осадки, метель} 10/10 1110 м
[]
+10.1 +5.0 71 +6 +6 1000.7 1000.3 0.0
13 17.09 З 9
{16}
45 км 10/6
[]
+9.8 +5.0 72 +6 +6 1000.5 1000.1
14 17.09 З 9
{13}
45 км 10/8
[]
+9.7 +5.0 73 +5 +5 1000.3 999.9
15 17.09 З 7
{11}
40 км 5/0 2000 м
[]
+10.1 +5.2 72 +7 +7 1000.0 999.6
16 17.09 С 6
{16}
50 км слаб. ливневой дождь 10/10 660 м
[]
+8.2 +5.0 80 +4 +4 1000.7 1000.3 0.0
17 17.09 З 7
{14}
50 км в посл. час дождь {ливн. осадки, метель} 10/5
[]
+9.2 +5.3 77 +5 +5 1000.4 1000.0 0.2
18 17.09 З 9
{13}
50 км {ливн. осадки, метель} 10/10 1140 м
[]
+9.2 +6.0 80 +5 +5 1001.2 1000.8 +7.8 +12.2
19 17.09 СЗ 12
{16}
35 км 10/1 240 м
[]
+8.8 +6.5 85 +3 +3 1002.1 1001.7
20 17.09 СЗ 12
{16}
50 км в посл. час дождь {ливн. осадки} 10/3 450 м
[]
+8.9 +6.7 86 +4 +4 1003.3 1003.0 0.1
21 17.09 С 12
{17}
50 км {ливн. осадки, дождь} 10/10 1500 м
[]
+9.2 +6.5 83 +4 +4 1004.3 1004.0
22 17.09 СЗ 14
{18}
50 км {ливн. осадки, дождь} ясно +9.5 +6.5 82 +4 +4 1005.4 1005.0
23 17.09 СЗ 12
{17}
50 км {ливн. осадки, дождь} ясно +9.4 +6.4 82 +4 +4 1006.6 1006.2
00 18.09 СЗ 11
{14}
50 км {ливн. осадки, дождь} ясно +9.4 +6.4 82 +4 +4 1007.3 1007.0
01 18.09 СЗ 12
{14}
50 км ясно +9.3 +6.2 81 +4 +4 1007.7 1007.4
02 18.09 СЗ 11
{16}
50 км ясно +9.2 +5.8 79 +4 +4 1008.5 1008.1
03 18.09 СЗ 10
{14}
50 км ясно +8.9 +6.2 83 +4 +4 1009.1 1008.7
04 18.09 СЗ 9
{13}
50 км ясно +8.4 +5.8 84 +4 +4 1009.7 1009.4
05 18.09 СЗ 9
{12}
50 км ясно +8.0 +5.7 85 +3 +3 1010.4 1010.0
06 18.09 СЗ 10
{13}
50 км ясно +8.3 +5.7 84 +3 +3 1011.0 1010.6 +7.8 +9.6
07 18.09 СЗ 9
{12}
40 км ясно +9.1 +5.5 78 +5 +5 1011.6 1011.2
08 18.09 СЗ 9
{11}
40 км ясно +10.0 +5.7 75 +6 +6 1012.1 1011.7
09 18.09 СЗ 7
{10}
35 км ясно +11.6 +6.6 71 +9 +10 1012.4 1012.1
10 18.09 СЗ 6
{9}
40 км ясно +12.8 +7.2 69 +10 +13 1012.8 1012.5
11 18.09 С 5
{8}
45 км ясно +13.3 +6.0 61 +11 +15 1013.3 1012.9
12 18.09 СЗ 3
{7}
40 км ясно +14.2 +6.9 61 +13 +19 1013.8 1013.4
13 18.09 З 2
{4}
35 км 5/1 1500 м
[]
+14.5 +7.3 62 +14 +18 1014.0 1013.7
14 18.09 СЗ 5
{6}
40 км 4/1 1500 м
[]
+14.1 +7.8 66 +12 +14 1014.3 1013.9
15 18.09 СЗ 7
{8}
40 км 3/0
[]
+13.7 +7.8 68 +11 +12 1014.7 1014.3
16 18.09 СЗ 5
{7}
45 км 3/1 1500 м
[]
+13.1 +7.0 66 +11 +11 1014.9 1014.5
17 18.09 СЗ 5
{8}
50 км ясно +12.6 +7.4 71 +10 +10 1015.2 1014.9
18 18.09 СЗ 5
{7}
50 км 3/3 1500 м
[]
+12.6 +6.3 65 +11 +11 1015.9 1015.5 +8.2 +15.3
19 18.09 С 6
{7}
50 км ясно +12.2 +6.7 69 +10 +10 1016.6 1016.3
20 18.09 С 7
{9}
50 км ясно +11.7 +6.2 69 +9 +9 1017.1 1016.7
21 18.09 С 6
{10}
50 км ясно +11.0 +6.9 76 +8 +8 1017.5 1017.1
22 18.09 СЗ 6
{9}
50 км ясно +10.6 +6.4 75 +7 +7 1017.8 1017.4
23 18.09 С 7
{9}
50 км ясно +10.1 +6.2 77 +6 +6 1018.3 1017.9
00 19.09 СЗ 6
{9}
50 км ясно +10.1 +6.4 78 +7 +7 1018.6 1018.3
01 19.09 СЗ 5
{7}
50 км ясно +9.3 +5.8 79 +6 +6 1018.9 1018.5
02 19.09 СЗ 6
{7}
50 км ясно +8.9 +5.2 78 +5 +5 1018.9 1018.5
03 19.09 СЗ 7
{8}
50 км ясно +8.9 +5.5 79 +5 +5 1019.2 1018.8
04 19.09 СЗ 7
{9}
50 км ясно +8.7 +5.6 81 +5 +5 1019.3 1019.0
05 19.09 СЗ 7
{9}
50 км ясно +8.6 +5.6 81 +4 +4 1019.7 1019.3
06 19.09 СЗ 8
{10}
50 км ясно +8.6 +5.3 80 +4 +4 1020.0 1019.6 +8.4 +12.8
07 19.09 С 9
{11}
35 км ясно +9.1 +5.7 79 +5 +5 1020.7 1020.4
08 19.09 СЗ 8
{9}
45 км ясно +10.1 +5.8 75 +6 +7 1021.2 1020.8
09 19.09 С 8
{10}
35 км ясно +11.2 +6.2 71 +8 +9 1021.7 1021.4
10 19.09 С 7
{10}
35 км ясно +11.8 +6.2 69 +9 +11 1022.2 1021.8
11 19.09 СЗ 5
{8}
30 км ясно +12.7 +6.5 66 +11 +14 1022.5 1022.1
12 19.09 С 2
{6}
29 км ясно +13.6 +6.3 61 +13 +19 1022.5 1022.1
13 19.09 СЗ 3
{6}
40 км ясно +13.4 +6.4 63 +12 +16 1022.4 1022.0
14 19.09 СЗ 1
{3}
45 км 3/1 2000 м
[]
+13.9 +4.1 52 +14 +17 1022.4 1022.0
15 19.09 С 3
{5}
50 км 6/0 2000 м
[]
+13.1 +5.7 61 +12 +13 1022.6 1022.2
16 19.09 СЗ 5
{8}
50 км 3/0
[]
+12.0 +6.8 70 +10 +10 1022.9 1022.5
17 19.09 СЗ 7
{10}
50 км ясно +12.0 +5.3 64 +9 +9 1023.4 1023.0
18 19.09 СЗ 6
{8}
50 км 3/0
[]
+11.6 +5.4 66 +9 +9 1024.0 1023.6 +8.6 +14.1
19 19.09 С 4
{8}
50 км ясно +10.5 +6.1 74 +8 +8 1024.1 1023.7
20 19.09 С 5
{7}
50 км ясно +10.4 +4.9 69 +8 +8 1024.4 1024.0
21 19.09 С 5
{6}
50 км ясно +10.1 +5.8 75 +7 +7 1024.6 1024.2
22 19.09 СЗ 4
{6}
50 км ясно +9.3 +5.8 79 +6 +6 1024.8 1024.4
23 19.09 СЗ 4
{5}
50 км ясно +8.8 +4.8 76 +6 +6 1024.9 1024.5
00 20.09 СЗ 4
{6}
50 км ясно +8.6 +5.0 78 +6 +6 1024.7 1024.4
01 20.09 СЗ 4
{5}
50 км ясно +8.7 +5.0 78 +6 +6 1024.6 1024.2
02 20.09 С 3
{5}
50 км ясно +8.4 +5.5 82 +6 +6 1024.2 1023.8
03 20.09 СЗ 3
{5}
50 км ясно +8.1 +5.2 82 +5 +5 1024.1 1023.7
04 20.09 СЗ 4
{5}
50 км ясно +7.6 +5.1 84 +4 +4 1024.0 1023.7
05 20.09 СЗ 2
{5}
50 км ясно +7.6 +5.1 84 +6 +6 1023.6 1023.2
06 20.09 З 1
{3}
45 км 10/0
[]
+9.4 +5.5 77 +9 +9 1023.2 1022.9 +7.6 +11.7
07 20.09 ЮЗ 1
{2}
50 км 10/8
[]
+9.6 +5.8 77 +9 +9 1023.6 1023.2
08 20.09 ЮЗ 2
{4}
45 км 10/10
[]
+10.3 +6.2 76 +9 +9 1023.6 1023.3
09 20.09 ЮЗ 3
{4}
35 км 10/0
[]
+11.0 +7.2 77 +9 +9 1023.5 1023.1
10 20.09 ЮЗ 3
{5}
50 км 10/4 1350 м
[]
+11.5 +6.3 70 +10 +11 1022.9 1022.6
11 20.09 ЮЗ 4
{6}
40 км 10/10
[]
+11.9 +7.9 76 +10 +10 1022.4 1022.0
12 20.09 ЮЗ 6
{8}
30 км 10/0 2000 м
[]
+10.9 +9.2 89 +8 +8 1022.1 1021.7
13 20.09 ЮЗ 6
{9}
25 км 10/10 1500 м
[]
+11.2 +9.6 90 +8 +8 1020.9 1020.5
14 20.09 ЮЗ 6
{8}
30 км 10/10 1500 м
[]
+11.9 +10.2 89 +9 +9 1020.5 1020.2
15 20.09 ЮЗ 6
{9}
40 км 10/10 1320 м
[]
+11.3 +10.1 92 +8 +8 1020.0 1019.6
16 20.09 ЮЗ 5
{8}
23 км 10/8 1350 м
[]
+11.1 +10.2 94 +8 +8 1019.6 1019.2
17 20.09 ЮЗ 4
{7}
35 км 10/9 1020 м
[]
+11.1 +10.6 97 +9 +9 1019.3 1019.0
18 20.09 З 5
{7}
35 км 8/0
[]
+11.4 +11.1 98 +9 +9 1019.6 1019.3 +9.2 +12.5
19 20.09 ЮЗ 4
{6}
23 км 10/10
[]
+11.2 +10.9 98 +9 +9 1019.3 1018.9
20 20.09 З 6
{8}
30 км 10/10
[]
+11.6 +10.9 95 +9 +9 1019.1 1018.7
21 20.09 З 5
{7}
35 км 4/0
[]
+11.4 +10.5 94 +9 +9 1019.1 1018.7
22 20.09 З 5
{7}
35 км ясно +11.3 +10.4 94 +8 +8 1019.3 1018.9
23 20.09 З 5
{7}
35 км ясно +11.3 +10.3 94 +8 +8 1018.8 1018.4
00 21.09 З 4
{7}
40 км 10/10 420 м
[]
+11.4 +10.1 92 +9 +9 1018.8 1018.4
01 21.09 З 6
{8}
50 км 10/10 330 м
[]
+11.8 +10.3 91 +9 +9 1018.3 1017.9
02 21.09 З 5
{9}
45 км 10/10 330 м
[]
+11.9 +10.2 89 +9 +9 1018.1 1017.8
03 21.09 З 6
{9}
50 км 10/10 330 м
[]
+11.9 +10.2 89 +9 +9 1017.8 1017.4
04 21.09 З 5
{9}
45 км 10/10 330 м
[]
+11.8 +10.2 90 +9 +9 1017.5 1017.1
05 21.09 З 6
{9}
35 км 10/10 270 м
[]
+11.8 +10.4 91 +9 +9 1017.6 1017.2
06 21.09 З 6
{9}
45 км 10/10 240 м
[]
+11.9 +10.5 91 +9 +9 1017.9 1017.5 +11.1 +12.0
07 21.09 З 5
{8}
30 км 10/10 270 м
[]
+12.3 +10.9 91 +10 +10 1018.1 1017.7
08 21.09 З 4
{7}
30 км 10/10 330 м
[]
+12.8 +11.1 89 +11 +11 1018.3 1017.9
09 21.09 З 4
{5}
30 км 6/0
[]
+13.5 +11.3 87 +12 +14 1018.1 1017.8
10 21.09 ЮЗ 3
{5}
28 км ясно +14.3 +11.1 81 +13 +18 1018.4 1018.1
11 21.09 ЮЗ 5
{6}
24 км ясно +13.4 +10.7 84 +11 +15 1018.0 1017.6
12 21.09 ЮЗ 6
{9}
19 км ясно +13.3 +10.6 84 +11 +13 1018.0 1017.7
13 21.09 ЮЗ 6
{8}
22 км ясно +13.5 +11.1 85 +11 +13 1017.9 1017.5
14 21.09 ЮЗ 6
{8}
21 км ясно +13.1 +10.8 86 +11 +12 1017.5 1017.1
15 21.09 ЮЗ 6
{8}
20 км ясно +12.8 +10.8 88 +10 +11 1017.2 1016.8
16 21.09 ЮЗ 5
{8}
18 км ясно +12.3 +10.6 89 +10 +10 1017.2 1016.9
17 21.09 ЮЗ 5
{8}
18 км ясно +11.7 +10.6 93 +9 +9 1017.4 1017.1
18 21.09 ЮЗ 4
{7}
15 км ясно +11.4 +10.6 95 +9 +9 1017.4 1017.1 +11.4 +15.1
19 21.09 ЮЗ 4
{7}
14 км ясно +11.2 +10.5 95 +9 +9 1017.4 1017.0
20 21.09 ЮЗ 4
{7}
13 км ясно +11.1 +10.6 97 +9 +9 1017.4 1017.0
21 21.09 З 3
{7}
18 км ясно +11.8 +11.1 95 +10 +10 1017.1 1016.8
22 21.09 З 2
{4}
16 км ясно +11.4 +10.8 96 +10 +10 1017.1 1016.7
23 21.09 З 4
{5}
12 км ясно +11.1 +10.6 97 +9 +9 1017.1 1016.7
00 22.09 ЮЗ 4
{5}
14 км ясно +11.0 +10.6 97 +8 +8 1016.6 1016.3
01 22.09 ЮЗ 3
{5}
13 км ясно +11.1 +10.7 97 +9 +9 1016.3 1015.9
02 22.09 З 3
{6}
12 км ясно +11.2 +10.9 98 +9 +9 1016.2 1015.8
03 22.09 З 4
{6}
14 км ясно +11.3 +10.9 97 +9 +9 1015.9 1015.5
05 22.09 СЗ 3
{4}
15 км ясно +10.9 +10.5 97 +9 +9 1015.5 1015.2
06 22.09 З 2
{3}
17 км ясно +11.7 +11.1 96 +10 +11 1015.5 1015.2 +10.5 +12.3
07 22.09 З 4
{5}
26 км ясно +11.9 +10.6 92 +10 +11 1015.4 1015.0
08 22.09 З 5
{6}
24 км ясно +11.9 +10.1 89 +9 +11 1015.7 1015.3
09 22.09 ЮЗ 2
{5}
28 км ясно +13.5 +11.1 85 +13 +18 1015.3 1015.0
10 22.09 ЮЗ 3
{5}
21 км ясно +13.5 +11.0 85 +12 +17 1015.3 1014.9
11 22.09 ЮЗ 3
{5}
21 км ясно +14.0 +11.4 84 +13 +18 1015.2 1014.8

 

Местоположение метеостанции Оландс Содра Удде (Швеция): широта 56.20 долгота 16.40 высота над уровнем моря 3 м.

В архиве по умолчанию представлена погода в Оландс Содра Удде за последнюю неделю. Архивные данные за месяц целиком и за предыдущие месяцы, начиная с января 2011 года, Вы можете получить, выбрав интересующий диапазон дат из раскрывающегося списка и нажав кнопку "Ввод!".


*Определитесь, кто Вы:
робот инопланетянин человек

Внимание! Время в таблицах - всемирное. Для получения местного времени необходимо прибавить поправку, которая равна 1 ч.

Смотрите также архив погоды в соседних городах и на ближайших метеорологических станциях:

Погода в Карлскруне (Швеция) (51 км)
Погода на Маяке Utklippan (Швеция) (52 км)
Погода на Эландском мосту (Швеция) (52 км)
Погода в Кальмаре (Швеция) (54 км)
Погода в Роннебу (Швеция) (70 км)
Погода в Косте (Швеция) (93 км)
Погода в Хано (Швеция) (98 км)
Погода в Векшё (Швеция) (120 км)
Погода в Хобурге АМС (Швеция) (134 км)
Погода в Оландс Норра Удде (Швеция) (137 км)

Пояснения к столбцам:

Ветер - указаны скорость ветра в м/с - средняя за 10 мин, порывы в срок и между сроками (в фигурных скобках) и направление, откуда дует ветер: С - северный, СВ - северо-восточный, В - восточный, ЮВ - юго-восточный, Ю - южный, ЮЗ - юго-западный, З - западный, СЗ - северо-западный.
Видимость - горизонтальная дальность видимости в метрах или километрах. При видимости от 1 до 10 км при отсутствии осадков обычно наблюдается дымка, при ухудшении видимости до 1 км и менее - туман. В сухую погоду видимость может ухудшаться дымом, пылью или мглою.
Явления - указаны атмосферные явления, наблюдавшиеся в срок или в последний час перед сроком; фигурными скобками обозначены явления, наблюдавшиеся между сроками (за 1-3 часа до срока); квадратными скобками обозначены град или гололедные отложения с указанием их диаметра в мм.
Облачность - указаны через наклонную черту общая и нижняя облачность в баллах и высота нижней границы облаков в метрах; квадратными скобками обозначены формы облаков: Ci - перистые, Cs - перисто-слоистые, Cc - перисто-кучевые, Ac - высококучевые, As - высокослоистые, Sc - слоисто-кучевые, Ns - слоисто-дождевые, Cu - кучевые, Cb - кучево-дождевые. Подробнее классификацию облаков см. в Атласе облаков (PDF).
T - Температура воздуха - температура, измеренная на высоте 2 м над землей.
Td - Температура точки росы - температура, при понижении до которой содержащийся в воздухе водяной пар достигнет насыщения.
f - Относительная влажность воздуха - влажноcть воздуха, измеренная на высоте 2 м над землей.
Te - Эффективная температура - температура, которую ощущает одетый по сезону человек в тени. Характеристика душности погоды. При расчете учитывается влияние влажности воздуха и скорости ветра на теплоощущения человека.
Tes - Эффективная температура на солнце - температура, которую ощущает человек, с поправкой на солнечный нагрев. Характеристика знойности погоды. Зависит от высоты солнца над горизонтом, облачности и скорости ветра. Ночью, в пасмурную погоду, а также при ветре 12 м/с и более поправка равна нулю.
P - Атмосферное давление - приведенное к уровню моря атмосферное давление.
Po - Атмосферное давление - измеренное на уровне метеостанции атмосферное давление.
Tmin - Минимальная температура - минимум температуры воздуха на высоте 2 м над землей.
Tmax - Максимальная температура - максимум температуры воздуха на высоте 2 м над землей.
R - Количество осадков - Количество выпавших осадков за период времени, мм. При наведении курсора мыши на число - период времени, за который выпало указанное количество осадков.
R24 - Количество осадков - Количество выпавших осадков за 24 часа, мм.
S - Снежный покров - Высота снежного покрова, см. При наведении курсора мыши на число - состояние снежного покрова и степень покрытия местности в баллах.